Tracking 29892 objects as of 21-Nov-2024
HD Live streaming from Space Station
objects crossing your sky now

TITAN 34D TRANSTAGE DEB

Track TITAN 34D TRANSTAGE DEB now!
10-day predictions


NORAD ID: 25587
Int'l Code: 1988-077S
Perigee: 521.9 km
Apogee: 17,538.5 km
Inclination: 27.3 °
Period: 317.0 minutes
Semi major axis: 15401 km
RCS: Unknown
Launch date: September 2, 1988
Source: United States (US)
Launch site: AIR FORCE EASTERN TEST RANGE (AFETR)

Note: This is SATELLITE DEBRIS
Your satellite tracking list
Your tracking list is empty




NASA's NSSDC Master Catalog

Two Line Element Set (TLE):
1 25587U 88077S   24325.52660334  .00000670  00000-0  17963-2 0  9993
2 25587  27.3215  22.1650 5524438 349.9085   2.5041  4.54224204 88504
Source of the keplerian elements: AFSPC